Location: Gollag?dem
(17.0207°N, 80.7261°E)
Time: 06:43:35
(UTC+00:00)

DELTA 2 DEB (DPAF) - Pass Details

Date: 03 August 2024
Orbit: 586 x 590 km, 98.4° (Epoch: 09 September)

Event Time Altitude Azimuth Distance (km) Brightness Sun altitude
Rises 14:23:41 0° 18° (NNE) 2,806 7.5 -17.5°
Reaches altitude 10° 14:25:52 10° 22° (NNE) 1,906 6.6 -18.0°
Maximum altitude 14:29:56 58° 101° (ESE) 683 3.9 -18.8°
Enters shadow 14:31:51 29° 170° (S) 1,084 5.0 -19.3°
